San Jose, Costa Rica

8:10 PM CST on August 21, 2017 (GMT -0600)
Juan Santamaria International

Weather History for MROC - July, 2013

Change the Weather History Date:

Tuesday, July 9, 2013

  Actual Average Record
Temperature  
Mean Temperature 76 °F -  
Max Temperature 85 °F 80 °F 87 °F (2002)
Min Temperature 68 °F 65 °F 64 °F (1998)
Cooling Degree Days 12    
Growing Degree Days 26 (Base 50)    
Moisture  
Dew Point 64 °F    
Average Humidity 70    
Maximum Humidity 94    
Minimum Humidity 38    
Precipitation  
Precipitation 0.00 in 0.28 in - ()
Sea Level Pressure  
Sea Level Pressure 29.99 in    
Wind  
Wind Speed 8 mph ()    
Max Wind Speed 16 mph    
Max Gust Speed 23 mph    
Visibility 6.7 miles    
Events Fog    
Averages and records for this station are not official NWS values.
T = Trace of Precipitation, MM = Missing Value Source: Averaged Metar Reports

Daily Weather History Graph

Daily Weather History Graph

Search for Another Location

Airport or City:

Trip Planner

Search our weather history database for the weather conditions in past years. The results will help you decide how hot, cold, wet, or windy it might be!

Date:

Astronomy

Jul. 09, 2013 Rise Set
Actual Time 5:21 AM CST 6:02 PM CST
Civil Twilight 4:59 AM CST 6:25 PM CST
Nautical Twilight 4:32 AM CST 6:52 PM CST
Astronomical Twilight 4:04 AM CST 7:19 PM CST
Moon 6:23 AM CST (7/9) 7:06 PM CST (7/9)
Length of Visible Light 13h 26m
Length of Day
12h 40m
New Moon, 2% of the Moon is Illuminated
Jul 9
New Moon
Jul 15
First Quarter
Jul 22
Full
Jul 29
Last Quarter
Aug 6
New

Hourly Weather History & Observations

Time (CST) Temp. Heat Index Dew Point Humidity Pressure Visibility Wind Dir Wind Speed Gust Speed Precip Events Conditions
12:00 AM 71 °F - 61 °F 63% 29.83 in 12 mi East 4.6 mph - -   Clear
12:00 AM 71.6 °F - 60.8 °F 69% 30.02 in - East 4.6 mph - N/A   Clear
1:00 AM 71.6 °F - 60.8 °F 69% 30.02 in - East 8.1 mph - N/A   Clear
2:00 AM 71.6 °F - 60.8 °F 69% 30.00 in - SE 6.9 mph - N/A   Clear
3:00 AM 70 °F - 61 °F 66% 29.85 in 12 mi ESE 10.4 mph - -   Clear
3:00 AM 69.8 °F - 60.8 °F 73% 30.00 in - ESE 10.4 mph - N/A   Clear
4:00 AM 69.8 °F - 60.8 °F 73% 30.01 in - East 9.2 mph - N/A   Clear
5:00 AM 69.8 °F - 60.8 °F 73% 30.03 in - SE 10.4 mph - N/A   Clear
6:00 AM 71 °F - 61 °F 62% 29.86 in 12 mi ESE 10.4 mph - -   Clear
6:00 AM 71.6 °F - 60.8 °F 69% 30.03 in - ESE 10.4 mph - N/A   Clear
7:00 AM 73.4 °F - 60.8 °F 65% 30.03 in - SE 13.8 mph - N/A   Clear
8:00 AM 77.0 °F - 62.6 °F 61% 30.05 in 6.2 mi SE 16.1 mph - N/A   Mostly Cloudy
9:00 AM 82 °F - 62 °F 40% 29.85 in 12 mi ESE 16.1 mph - -   Overcast
9:00 AM 82.4 °F 83.4 °F 62.6 °F 51% 30.04 in 6.2 mi ESE 16.1 mph - N/A   Mostly Cloudy
10:00 AM 82.4 °F 83.4 °F 62.6 °F 51% 30.05 in 6.2 mi ESE 11.5 mph 23.0 mph N/A   Mostly Cloudy
11:00 AM 82.4 °F 83.4 °F 62.6 °F 51% 30.05 in 6.2 mi East 11.5 mph 23.0 mph N/A   Mostly Cloudy
12:00 PM 83 °F - 61 °F 38% 29.84 in 12 mi East 15.0 mph - -   Overcast
12:00 PM 82.4 °F 82.9 °F 60.8 °F 48% 30.03 in 6.2 mi East 15.0 mph - N/A   Mostly Cloudy
1:00 PM 82.4 °F 82.9 °F 60.8 °F 48% 30.02 in 6.2 mi ENE 11.5 mph 23.0 mph N/A   Mostly Cloudy
1:05 PM 78.8 °F - 69.8 °F 74% 30.02 in 6.2 mi SSW 12.7 mph - N/A   Mostly Cloudy
2:00 PM 77.0 °F - 69.8 °F 78% 30.00 in 6.2 mi WSW 13.8 mph - N/A   Mostly Cloudy
3:00 PM 78.8 °F - 69.8 °F 74% 30.00 in 6.2 mi WSW 8.1 mph - N/A   Mostly Cloudy
4:00 PM 77.0 °F - 69.8 °F 78% 30.00 in 6.2 mi WSW 9.2 mph - N/A   Mostly Cloudy
5:00 PM 75.2 °F - 69.8 °F 83% 30.01 in 6.2 mi West 9.2 mph - N/A   Mostly Cloudy
5:25 PM 71.6 °F - 69.8 °F 94% 30.02 in 5.0 mi WSW 5.8 mph - N/A Fog Fog
6:00 PM 71 °F - 69 °F 90% 29.85 in 3 mi West 4.6 mph - -   Mist
6:00 PM 71.6 °F - 68.0 °F 88% 30.02 in 3.1 mi West 4.6 mph - N/A   Mostly Cloudy
7:00 PM 69.8 °F - 68.0 °F 94% 30.04 in 5.0 mi SSW 2.3 mph - N/A Fog Fog
8:00 PM 71.6 °F - 68.0 °F 88% 30.06 in 6.2 mi NW 2.3 mph - N/A Fog Mostly Cloudy
9:00 PM 71 °F - 68 °F 88% 29.88 in 3 mi SE 2.3 mph - -   Mist
9:00 PM 71.6 °F - 68.0 °F 88% 30.07 in 3.1 mi SE 2.3 mph - N/A   Scattered Clouds
10:00 PM 71.6 °F - 66.2 °F 83% 30.06 in 5.0 mi Calm Calm - N/A Fog Fog
11:00 PM 71.6 °F - 62.6 °F 73% 30.04 in 6.2 mi East 6.9 mph - N/A   Scattered Clouds